Abha, Saudi Arabia

9:02 PM +03 on September 20, 2019 (GMT +0300)
Abha

Weather History for OEAB - May, 2019

Change the Weather History Date:

Thursday, May 23, 2019

  Actual Average Record
Temperature  
Mean Temperature 68 °F -  
Max Temperature 76 °F 83 °F 89 °F (2017)
Min Temperature 59 °F 60 °F 59 °F (2019)
Cooling Degree Days 2    
Growing Degree Days 18 (Base 50)    
Moisture  
Dew Point 52 °F    
Average Humidity 67    
Maximum Humidity 88    
Minimum Humidity 33    
Precipitation  
Precipitation 0.08 in - - ()
Sea Level Pressure  
Sea Level Pressure 30.30 in    
Wind  
Wind Speed 6 mph ()    
Max Wind Speed 17 mph    
Max Gust Speed -    
Visibility 6.2 miles    
Events Thunderstorm    
Averages and records for this station are not official NWS values.
T = Trace of Precipitation, MM = Missing Value Source: Averaged Metar Reports

Daily Weather History Graph

Daily Weather History Graph

Search for Another Location

Airport or City:

Astronomy

May. 23, 2019 Rise Set
Actual Time 5:34 AM +03 6:38 PM +03
Civil Twilight 5:10 AM +03 7:02 PM +03
Nautical Twilight 4:42 AM +03 7:29 PM +03
Astronomical Twilight 4:13 AM +03 7:58 PM +03
Moon 10:48 PM +03 (5/23) 9:20 AM +03 (5/23)
Length of Visible Light 13h 51m
Length of Day
13h 04m
Waning Gibbous, 80% of the Moon is Illuminated
May 23
Waning Gibbous
May 26
Last Quarter
Jun 3
New
Jun 10
First Quarter
Jun 17
Full

Hourly Weather History & Observations

Time (+03) Temp. Dew Point Humidity Pressure Visibility Wind Dir Wind Speed Gust Speed Precip Events Conditions
12:00 AM 62.6 °F 51.8 °F 68% 30.33 in 6.2 mi SSE 6.9 mph - N/A   Scattered Clouds
1:00 AM 60.8 °F 55.4 °F 82% 30.33 in 6.2 mi NNW 5.8 mph - N/A   Scattered Clouds
2:00 AM 60.8 °F 53.6 °F 77% 30.30 in - North 8.1 mph - N/A   Clear
3:00 AM 60 °F 55 °F 80%  in 6 mi North 9.2 mph - -  
3:00 AM 60.8 °F 55.4 °F 82% 30.30 in - North 9.2 mph - N/A   Clear
5:00 AM 59.0 °F 55.4 °F 88% 30.30 in - Calm Calm - N/A   Clear
6:00 AM 59.0 °F 53.6 °F 82% 30.30 in - Calm Calm - N/A   Clear
7:00 AM 60.8 °F 53.6 °F 77% 30.30 in - WNW 3.5 mph - N/A   Clear
8:00 AM 64.4 °F 48.2 °F 56% 30.30 in - Calm Calm - N/A   Clear
9:00 AM 66.2 °F 48.2 °F 52% 30.33 in - East 4.6 mph - N/A   Clear
11:00 AM 73.4 °F 44.6 °F 36% 30.33 in - NNW 4.6 mph - N/A   Clear
12:00 PM 73.4 °F 48.2 °F 41% 30.30 in 6.2 mi SSW 9.2 mph - N/A   Scattered Clouds
1:00 PM 73.4 °F 42.8 °F 33% 30.30 in 6.2 mi SSW 6.9 mph - N/A   Scattered Clouds
2:00 PM 77.0 °F 48.2 °F 36% 30.27 in 6.2 mi South 11.5 mph - N/A   Partly Cloudy
3:00 PM 71.6 °F 51.8 °F 50% 30.27 in 6.2 mi WNW 17.3 mph - N/A Thunderstorm Thunderstorm
4:00 PM 66.2 °F 48.2 °F 52% 30.27 in 6.2 mi NW 8.1 mph - N/A Thunderstorm Thunderstorm
6:00 PM 60.8 °F 55.4 °F 82% 30.30 in 6.2 mi NNW 8.1 mph - N/A Thunderstorm Thunderstorm
7:00 PM 60.8 °F 53.6 °F 77% 30.30 in 6.2 mi NNW 6.9 mph - N/A   Partly Cloudy
8:00 PM 59.0 °F 53.6 °F 82% 30.33 in 6.2 mi NNW 6.9 mph - N/A   Partly Cloudy
9:00 PM 59 °F 54 °F 77%  in 6 mi Calm Calm - -   Scattered Clouds
10:00 PM 59.0 °F 55.4 °F 88% 30.33 in 6.2 mi NNW 6.9 mph - N/A   Partly Cloudy